Dewpoint
67 64 59 62 56 50 40 38 41 41 42 44 46 46 45 47 50 49 57 62 65 67 70 70 73 71 70 70 70 69 69 69 69 66 64 62 62 62 61 61 61 61 62 62 62 62 62 62 62
58 56 59 59 52 42 42 40 39 41 43 44 47 48 49 48 50 49 50 63 65 67 69 70 72 71 71 70 69 67 66 66 66 66 63 62 62 62 62 60 60 61 61 62 62 62 62 62 62
61 58 55 57 52 42 41 38 40 41 43 44 48 50 49 51 52 53 53 64 66 67 69 70 72 72 71 69 66 64 63 63 62 62 64 62 63 63 60 59 61 62 61 62 62 62 62 62 61
55 59 58 52 47 45 41 38 42 42 41 44 48 47 51 54 54 54 56 67 68 69 70 72 73 72 70 66 65 63 63 63 63 62 62 62 62 61 60 61 61 61 62 62 61 61 61 61 62
55 56 48 42 42 38 39 39 42 40 40 47 52 50 51 54 55 55 61 66 67 67 70 71 73 71 68 66 64 63 62 62 63 65 65 62 61 60 61 60 61 61 60 60 61 61 61 61 61
51 52 47 33 32 36 37 37 36 38 38 44 51 51 52 55 56 56 57 66 66 66 69 70 72 70 68 65 64 62 61 60 59 60 60 59 60 60 59 59 61 57 57 59 59 59 59 59 60
51 48 42 32 34 36 38 37 35 36 37 40 49 51 52 53 55 55 53 64 66 66 68 69 69 67 67 65 64 62 61 59 57 55 55 57 58 59 59 61 59 57 56 57 59 59 59 59 60
47 39 35 31 33 35 37 37 40 40 39 43 45 52 51 52 52 52 48 40 62 66 68 68 67 64 62 61 64 63 62 60 59 57 57 59 59 61 61 63 59 57 57 58 60 61 61 61 61
47 35 32 32 35 37 38 39 43 43 42 39 42 53 54 52 52 50 44 42 42 49 66 66 65 63 61 60 61 64 63 61 60 59 62 61 59 57 61 62 61 57 59 59 61 62 62 64 63
37 34 29 35 39 36 36 40 43 43 41 42 42 51 50 50 49 48 46 44 43 43 44 64 64 62 60 58 59 60 59 59 58 56 56 55 55 53 57 59 61 59 61 61 64 63 61 56 50
37 28 28 33 36 39 38 41 42 44 43 43 43 45 47 48 48 47 46 46 43 40 47 51 56 61 59 58 60 61 60 60 59 57 56 56 57 55 52 53 55 57 57 53 54 53 52 50 51
37 36 36 32 34 36 39 41 42 44 46 45 45 46 48 48 48 47 40 39 39 44 43 53 56 59 60 62 59 57 53 59 60 56 55 55 57 56 57 52 54 51 52 50 52 52 50 50 51
38 40 37 40 41 39 43 47 47 45 48 49 47 48 48 49 47 48 43 41 44 43 48 55 60 62 59 59 58 56 56 55 59 57 56 56 56 56 58 55 54 52 53 52 51 51 52 51 52
39 41 41 42 43 45 45 48 52 50 53 48 47 47 47 49 48 45 43 48 49 48 49 55 58 59 59 57 57 57 57 55 59 57 57 56 58 56 57 58 55 54 54 55 52 52 52 52 51
42 43 45 42 42 45 46 44 45 53 54 49 49 48 47 46 47 45 44 51 50 52 53 55 56 58 56 57 58 57 56 57 59 58 56 56 56 55 56 58 55 54 56 55 54 53 54 52 52
42 46 45 43 41 43 46 44 50 50 50 51 50 49 48 46 46 46 50 53 53 54 54 55 55 57 57 58 57 58 59 56 55 60 59 56 57 56 55 57 54 55 57 54 53 54 54 54 53
37 36 43 40 38 47 48 48 52 57 54 49 50 50 49 50 49 51 54 55 55 54 54 57 55 55 57 59 58 58 56 54 56 59 58 56 55 57 55 57 57 55 55 55 53 54 55 54 53
34 33 35 35 40 44 47 50 52 60 55 52 53 52 50 50 50 54 55 55 57 56 56 57 59 57 59 61 59 59 57 56 58 60 58 56 55 57 55 56 58 56 55 55 55 54 54 55 53
28 31 33 36 43 44 46 46 47 53 53 54 55 58 49 51 52 55 53 57 57 58 56 59 58 60 61 59 56 56 56 57 59 59 56 56 55 57 55 57 58 55 55 57 54 53 53 52 55
29 29 30 41 46 48 49 46 49 51 50 53 54 55 49 45 46 49 57 58 57 58 58 60 59 58 60 58 58 60 58 57 58 57 57 57 56 56 57 55 56 55 56 55 55 54 54 53 53
29 28 29 37 41 45 46 46 46 49 52 53 54 53 47 44 48 52 56 59 59 60 60 61 61 59 59 58 60 57 58 58 57 57 59 58 58 57 56 56 55 54 56 55 56 54 52 53 55
21 28 32 39 39 40 43 39 47 49 52 53 52 51 46 48 51 54 58 58 59 61 62 62 61 59 60 60 60 58 59 56 58 59 59 58 57 56 56 56 57 56 54 54 56 56 55 54 53
30 32 34 41 43 43 42 39 44 51 48 53 53 49 45 49 53 57 59 59 60 61 62 62 62 62 60 61 61 62 57 60 61 60 58 56 59 58 57 56 55 55 57 56 57 56 56 56 55
32 33 39 40 42 40 37 39 42 46 51 54 53 47 46 49 55 58 59 59 60 61 62 62 63 64 64 63 63 61 59 58 59 58 57 59 59 59 58 55 56 57 58 57 57 58 58 57 57
25 35 32 30 36 38 36 36 36 49 52 47 44 50 49 46 52 57 59 60 60 61 62 61 64 64 64 62 63 62 60 60 59 58 59 57 56 59 58 57 57 57 59 59 59 58 58 58 57
26 37 32 30 30 33 42 40 38 48 52 53 48 53 49 45 48 54 58 59 60 61 61 60 64 64 65 64 63 64 62 61 60 61 59 58 56 59 58 57 58 59 59 60 60 59 59 59 58
27 33 35 35 37 37 43 44 48 52 52 53 53 50 46 44 50 52 56 58 60 61 60 61 63 64 65 64 63 64 63 61 61 61 59 60 61 58 59 58 59 59 59 60 59 61 59 59 58
36 37 29 38 32 32 40 40 41 45 47 50 47 48 47 45 49 54 56 59 61 61 61 61 62 63 65 65 62 64 63 62 62 60 60 61 61 61 59 59 59 60 62 61 60 60 58 58 58
35 33 44 40 41 38 33 37 44 51 49 45 49 47 45 43 50 53 56 57 60 61 61 61 61 62 64 58 59 63 64 64 63 62 61 62 61 61 61 60 61 60 60 59 57 55 54 54 54
37 41 44 41 35 41 38 41 51 53 52 50 50 46 45 43 45 50 54 55 56 57 61 62 61 62 64 63 60 64 65 63 63 62 61 60 60 61 61 60 59 55 53 51 50 50 50 51 52
Lifted_Index
-1 -2 -2 -2 -1 -1 -0 0 1 1 1 1 2 2 2 2 1 2 2 1 1 0 -0 -1 -0 0 1 1 1 2 2 2 2 3 5 6 6 6 7 7 7 6 6 6 6 6 6 6 6
-1 -2 -2 -2 -1 -1 -0 0 1 1 1 1 1 1 2 1 1 2 2 1 0 0 -0 -0 -0 0 0 1 2 3 3 3 3 3 4 5 6 6 6 7 7 6 6 6 6 6 6 6 6
-2 -2 -2 -2 -1 -1 -1 -0 0 1 1 1 1 1 1 1 1 2 1 0 -0 -0 -0 -1 -1 -0 1 2 3 4 4 4 4 4 4 5 5 5 6 6 6 6 6 6 6 6 6 6 6
-2 -1 -2 -2 -2 -1 -0 -0 0 1 1 1 1 1 1 1 1 2 1 -0 -1 -1 -1 -1 -1 -0 1 3 4 5 5 5 4 4 4 4 5 5 6 6 6 6 6 6 6 6 6 6 6
-1 -1 -1 -1 -1 -0 0 0 1 1 2 1 0 0 1 1 1 2 1 -1 -1 -1 -1 -1 -1 -0 1 3 4 5 5 5 5 4 4 4 5 5 5 5 6 6 6 6 6 6 6 6 6
-2 -2 -1 -1 0 1 1 2 2 2 2 1 0 0 0 1 1 1 0 -1 -1 -1 -1 -1 -1 0 2 3 4 5 6 6 6 5 5 5 5 5 5 5 6 6 7 7 7 7 7 7 7
-2 -2 -1 -0 1 2 2 2 2 2 2 2 1 0 0 1 1 1 1 0 -0 -0 -1 -1 -1 1 2 3 4 5 5 6 7 7 7 6 6 5 5 5 6 7 7 7 7 6 6 7 6
-1 -1 -1 0 1 1 2 2 2 2 2 2 1 0 0 1 1 2 2 2 2 1 -0 -0 0 1 2 3 3 4 5 6 6 6 6 6 6 5 5 5 6 7 7 6 6 6 5 5 5
-1 -1 -1 -0 0 1 1 1 1 1 2 2 1 0 -0 0 1 2 2 3 4 4 2 1 1 1 2 3 3 4 4 5 5 6 6 6 6 5 5 5 5 6 6 5 5 5 5 5 6
-0 -0 -0 -0 -0 0 0 0 0 1 1 1 1 0 -0 0 1 2 3 4 6 6 5 3 1 1 2 2 3 3 4 4 5 5 6 6 6 6 6 5 5 5 5 5 5 6 6 7 7
-1 -0 0 0 -0 -0 -0 -0 -0 -0 0 0 0 0 0 1 1 2 3 4 6 7 6 5 3 2 2 2 3 3 4 4 5 5 6 6 6 6 6 6 6 6 6 7 7 7 7 7 7
-0 -0 0 0 0 -0 -1 -1 -1 -1 -1 -0 -0 0 1 1 1 2 3 4 6 7 6 5 3 2 2 2 3 4 4 5 5 5 5 5 5 5 6 6 7 7 7 7 7 7 7 6 6
-0 -0 -0 -0 -0 -0 -1 -1 -1 -1 -1 -1 -1 0 1 1 1 2 3 4 5 6 5 4 3 3 3 3 3 4 5 5 5 5 5 5 5 5 5 6 6 7 7 6 6 6 6 6 5
0 0 0 -0 -0 -0 -1 -1 -1 -1 -1 -2 -1 -0 0 1 1 2 3 4 5 5 5 4 4 4 3 3 4 4 5 6 5 5 5 5 5 5 5 5 5 6 6 5 5 5 5 5 5
0 0 0 -0 -1 -1 -1 -0 -1 -2 -2 -2 -2 -1 0 1 1 2 2 3 4 4 4 4 4 5 4 4 4 5 5 5 5 5 4 4 4 5 5 4 5 5 5 5 5 5 5 5 5
0 0 0 -0 -1 -1 -1 -1 -1 -2 -2 -2 -2 -1 -1 0 1 1 2 2 2 3 3 3 4 5 5 5 5 5 5 5 4 4 4 4 4 4 4 4 4 4 4 5 5 5 4 4 4
-0 0 -0 -0 -1 -1 -1 -1 -2 -2 -2 -2 -2 -2 -1 -1 -0 0 1 1 1 1 2 2 3 5 5 5 5 5 5 5 4 3 3 4 4 4 4 4 4 4 4 4 4 4 4 4 4
-0 -0 -0 -0 -1 -1 -1 -1 -1 -2 -2 -2 -2 -2 -2 -2 -1 -1 -0 -0 0 0 1 1 2 4 4 4 4 4 4 4 4 3 3 3 3 3 3 3 3 4 4 4 4 4 4 4 4
-0 -0 -0 -0 -1 -1 -1 -1 -1 -1 -1 -1 -1 -2 -2 -2 -2 -2 -2 -1 -1 -0 -0 0 1 2 3 4 4 4 4 3 3 3 3 3 3 3 3 3 3 3 4 3 3 4 4 4 4
-0 -0 -1 -1 -1 -0 -0 -0 -0 -1 -0 -0 -1 -1 -2 -2 -2 -2 -2 -2 -1 -1 -1 -0 0 1 2 3 4 3 3 3 2 2 2 2 2 3 3 3 3 3 3 3 3 3 4 4 4
-0 -0 -1 -0 -0 0 0 -0 -0 -0 0 -0 -1 -1 -1 -2 -2 -2 -3 -2 -2 -1 -1 -1 0 1 2 2 2 2 2 2 2 2 2 2 2 2 2 2 3 3 3 3 3 3 3 3 3
-0 -0 -0 -0 0 0 0 -0 -0 -0 -0 -1 -2 -2 -2 -2 -2 -3 -3 -2 -2 -2 -1 -1 0 1 1 1 1 1 1 1 1 1 1 2 2 2 2 2 2 3 3 3 2 2 2 3 3
0 0 0 0 0 0 -0 -0 -0 -0 -1 -1 -2 -2 -2 -2 -2 -3 -3 -3 -2 -2 -2 -1 -0 -0 0 0 -0 -0 0 0 0 1 1 1 2 2 2 2 2 2 2 2 2 1 2 2 2
0 0 0 0 -0 -0 -1 -1 -1 -1 -1 -1 -1 -2 -1 -1 -2 -3 -3 -3 -3 -2 -2 -2 -1 -1 -2 -1 -1 -1 -1 -0 -0 0 1 1 1 1 1 1 2 2 2 1 1 1 1 1 1
-0 -0 -0 0 -0 -0 -1 -1 -0 -1 -1 -1 -1 -1 -1 -1 -2 -3 -3 -3 -3 -3 -2 -2 -2 -3 -3 -3 -2 -2 -1 -1 -1 -0 0 1 1 1 1 1 1 1 1 1 0 0 0 0 0
-0 -0 -0 -0 -0 -0 -0 -0 -0 -0 -1 -1 -1 -1 -1 -1 -1 -2 -2 -3 -3 -3 -3 -2 -3 -4 -4 -4 -3 -2 -2 -1 -1 -1 -0 0 1 1 1 1 1 0 0 -0 -0 -0 -0 -0 0
-0 0 -0 -0 -0 -0 -0 -0 -1 -0 -1 -1 -1 -1 -1 -1 -1 -1 -2 -3 -3 -3 -3 -3 -3 -4 -4 -4 -4 -3 -2 -2 -1 -1 -1 -1 -0 -0 0 0 -0 -0 -0 -1 -1 -0 -0 -0 -0
0 0 0 -0 -0 -0 -0 -1 -1 -0 -0 -1 -1 -1 -0 -0 -1 -1 -2 -3 -3 -3 -4 -3 -3 -4 -4 -3 -3 -3 -3 -2 -2 -2 -1 -1 -1 -1 -1 -1 -1 -1 -1 -1 -0 -0 0 0 1
-0 -0 0 -0 -0 -0 -1 -1 -1 -1 -1 -1 -1 -1 -0 -0 -0 -1 -2 -2 -3 -3 -4 -4 -3 -3 -3 -3 -2 -3 -3 -3 -3 -2 -2 -2 -2 -2 -1 -1 -1 -1 -0 0 0 1 2 2 3
-0 -0 0 0 -0 -1 -1 -0 -1 -1 -1 -1 -1 -1 -1 0 -0 -1 -1 -2 -3 -3 -4 -4 -3 -3 -3 -3 -2 -2 -3 -3 -3 -2 -2 -2 -2 -2 -2 -2 -1 -1 -0 1 1 2 3 4 4